DateTimeUTC,F1_A11,F1_S11,BsB_S11,BsG_S11,BsR_S11,BbsB_S11,BbsG_S11,BbsR_S11,BaB_A11,BaG_A11,BaR_A11,Tu_S11,T_S11,Uu_S11,U_S11,P_S11,T1_A11
2021-09-13T09:00:00Z,00000200,20000000,,,,,,,0000.13,-000.06,0000.22,18.4,25.3,01.5,01.0,0660.2,31.1
2021-09-13T09:01:00Z,00000200,20000000,,,,,,,-000.14,0000.17,-000.38,18.4,25.3,01.5,01.0,0660.3,31.0
2021-09-13T09:02:00Z,00000200,20000000,,,,,,,-000.52,-000.17,-000.11,18.4,25.3,01.5,01.0,0660.3,31.1
2021-09-13T09:03:00Z,00000200,60000000,,,,,,,0000.66,0000.41,0000.55,18.4,25.3,01.5,01.0,0660.2,31.1
2021-09-13T09:04:00Z,00000200,41000000,0000.59,0000.47,0000.46,-000.28,0000.26,0000.51,0000.21,0000.02,0000.12,18.5,25.2,01.6,01.1,0661.1,31.0
2021-09-13T09:05:00Z,00000200,01000000,0000.35,0000.82,0000.28,0000.24,0000.24,0000.26,0000.46,0000.34,-000.11,18.5,25.1,01.7,01.1,0661.4,31.0
2021-09-13T09:06:00Z,00000200,01000000,-000.43,0000.45,0000.32,0000.12,0000.26,0000.23,-000.15,0000.30,0000.27,18.5,25.1,01.6,01.1,0661.2,31.0
2021-09-13T09:07:00Z,00000200,01000000,-000.25,0000.30,0000.50,0000.62,0000.26,-000.08,0000.54,0000.12,0000.48,18.5,25.1,01.6,01.1,0661.2,31.0
2021-09-13T09:08:00Z,00000200,01000000,0000.39,0000.26,0000.30,0000.49,0000.14,0000.14,-000.15,0000.10,-000.19,18.5,25.1,01.6,01.1,0661.2,31.0
2021-09-13T09:09:00Z,00000200,01000000,-000.30,0000.68,0000.37,0000.94,0000.30,0000.24,0000.94,0000.69,0000.81,18.5,25.1,01.6,01.1,0661.3,31.0
2021-09-13T09:10:00Z,00000200,01000000,0000.03,0000.67,0000.44,0000.23,-000.06,0000.00,0000.04,-000.07,-000.00,18.5,25.1,01.7,01.1,0661.4,31.0
2021-09-13T09:11:00Z,00000200,01000000,0000.41,0000.43,0000.16,0000.54,-000.14,-000.01,0000.29,0000.70,0000.60,18.5,25.1,01.7,01.1,0661.3,31.0
2021-09-13T09:12:00Z,00000200,01000000,-000.48,0000.60,0000.20,0000.18,0000.26,-000.03,0000.51,-000.20,-000.06,18.5,25.1,01.7,01.1,0661.3,31.0
2021-09-13T09:13:00Z,00000200,01000000,0000.07,0000.80,0000.38,-000.14,0000.23,0000.37,0000.16,0000.71,0000.72,18.5,25.0,01.7,01.1,0661.2,31.0
2021-09-13T09:14:00Z,00000200,01000000,0001.36,0000.85,0000.57,0000.69,0000.03,0000.32,-000.18,0000.33,0000.24,18.4,25.0,01.7,01.2,0661.3,31.0
2021-09-13T09:15:00Z,00000200,01000000,0000.58,0000.63,0000.30,-000.14,0000.12,0000.05,0000.64,0000.14,-000.31,18.4,25.0,01.7,01.1,0661.3,31.0
2021-09-13T09:16:00Z,00000200,01000000,0000.25,0000.55,0000.08,-000.27,0000.18,0000.18,-000.16,-000.19,0000.18,18.4,25.0,01.7,01.1,0661.3,31.0
2021-09-13T09:17:00Z,00000200,01000000,0000.10,0000.44,0000.20,0000.33,0000.22,0000.23,0000.46,0000.38,-000.08,18.4,25.0,01.8,01.2,0661.2,31.0
2021-09-13T09:18:00Z,00000200,01000000,0000.57,0000.45,0000.47,0000.04,0000.21,0000.04,0000.47,-000.19,0000.18,18.4,25.0,01.7,01.2,0661.3,31.0
2021-09-13T09:19:00Z,00000200,01000000,0000.01,0000.63,-000.12,-000.60,0000.14,0000.13,-000.23,0000.46,0000.48,18.4,25.0,01.7,01.2,0661.5,31.0
2021-09-13T09:20:00Z,00000200,01000000,0000.02,0000.44,0000.34,-000.29,0000.16,0000.34,0000.44,0000.34,0000.32,18.4,25.0,01.7,01.2,0661.4,31.0
2021-09-13T09:21:00Z,00000200,01000000,0000.73,0000.34,0000.41,-000.18,0000.05,0000.23,0000.08,-000.14,-000.15,18.4,25.0,01.7,01.2,0661.3,31.0
2021-09-13T09:22:00Z,00000200,01000000,0000.66,0000.21,0000.12,-000.09,-000.01,-000.19,0000.14,0000.58,0000.43,18.4,25.0,01.7,01.2,0661.3,31.0
2021-09-13T09:23:00Z,00000200,01000000,0000.24,0000.54,0000.31,-000.76,0000.12,0000.32,0000.17,-000.14,-000.00,18.4,25.0,01.7,01.1,0661.4,31.0
2021-09-13T09:24:00Z,00000200,01000000,0000.33,0000.38,0000.36,-000.24,0000.11,0000.31,-000.15,0000.12,0000.11,18.4,25.0,01.8,01.2,0661.3,31.0
2021-09-13T09:25:00Z,00000200,01000000,0000.88,0000.56,0000.60,0000.04,-000.12,0000.32,0000.88,0000.96,0000.20,18.4,25.0,01.8,01.2,0661.3,31.0
2021-09-13T09:26:00Z,00000200,01000000,0000.00,0000.61,0000.39,-000.09,0000.16,0000.16,0000.54,0000.76,0001.20,18.4,24.9,01.8,01.2,0661.4,31.0
2021-09-13T09:27:00Z,00000200,01000000,0000.54,0000.64,0000.79,0000.27,0000.21,0000.38,0000.73,0000.25,0000.36,18.4,25.0,01.8,01.2,0661.4,31.0
2021-09-13T09:28:00Z,00000200,01000000,0000.04,0000.42,0000.61,-000.12,0000.14,0000.09,0000.49,0000.63,0000.30,18.5,25.0,01.8,01.2,0661.5,31.0
2021-09-13T09:29:00Z,00000200,01000000,0000.49,0000.76,0000.47,0000.19,0000.34,0000.40,0000.18,0000.39,0000.11,18.6,25.0,01.9,01.3,0661.4,31.1
2021-09-13T09:30:00Z,00000200,01000000,0000.36,0000.72,0000.37,0000.52,0000.28,0000.18,0001.15,0000.31,0001.00,18.6,25.0,02.0,01.3,0661.5,31.1
2021-09-13T09:31:00Z,00000200,00000000,-000.03,0000.69,0000.25,-000.11,0000.27,0000.34,0000.28,0000.78,0000.66,18.6,25.1,01.9,01.3,0661.5,31.1
2021-09-13T09:32:00Z,00000200,00000000,0000.22,0000.36,0000.29,0000.62,0000.11,0000.23,0000.43,0000.51,0000.29,18.6,25.1,01.9,01.3,0661.5,31.0
2021-09-13T09:33:00Z,00000200,00000000,-000.07,0000.52,0000.49,0000.51,0000.27,0000.17,-000.07,-000.29,0000.16,18.6,25.1,02.0,01.3,0661.5,31.0
2021-09-13T09:34:00Z,00000200,01000000,0000.06,0000.62,0000.52,-000.17,0000.33,0000.25,0000.50,0000.49,-000.10,18.6,25.1,02.0,01.3,0661.5,31.1
2021-09-13T09:35:00Z,00000200,00000000,-000.08,0000.74,0000.37,0000.15,0000.25,0000.37,0000.08,0000.32,0000.59,18.6,25.0,01.9,01.3,0661.5,31.0
2021-09-13T09:36:00Z,00000200,00000000,0000.57,0001.45,0001.28,0000.55,0000.36,0000.21,0000.50,0000.30,0000.14,18.5,25.0,02.0,01.3,0661.5,31.0
2021-09-13T09:37:00Z,00000200,01000000,0000.23,0000.65,0000.50,0000.20,0000.23,-000.01,0000.61,0000.64,0000.55,18.5,25.0,01.9,01.3,0661.6,31.0
2021-09-13T09:38:00Z,00000200,00000000,0000.34,0000.49,0000.68,0000.27,0000.40,0000.48,-000.01,0000.37,0000.02,18.5,25.0,01.9,01.3,0661.6,31.0
2021-09-13T09:39:00Z,00000200,01000000,0000.09,0000.36,0000.58,0000.36,0000.18,0000.07,0000.41,-000.00,-000.04,18.5,25.0,02.0,01.3,0661.7,31.0
2021-09-13T09:40:00Z,00000200,00000000,0000.61,0000.48,0000.44,0000.04,0000.34,0000.07,0000.74,0000.62,0000.66,18.5,25.0,02.0,01.3,0661.7,31.0
2021-09-13T09:41:00Z,00000200,01000000,0000.62,0000.57,0000.48,0000.23,0000.34,0000.16,-000.30,0000.02,0000.20,18.5,25.0,01.9,01.3,0661.6,31.0
2021-09-13T09:42:00Z,00000200,00000000,0000.27,0000.26,0000.24,-000.64,0000.22,0000.36,0000.44,0000.03,0000.36,18.5,25.0,01.9,01.3,0661.6,31.0
2021-09-13T09:43:00Z,00000200,00000000,0000.50,0000.53,0000.33,0000.12,0000.14,0000.32,0000.59,0000.42,0000.54,18.5,25.0,01.9,01.3,0661.7,31.0
2021-09-13T09:44:00Z,00000200,00000000,0000.53,0000.20,0000.73,-000.07,0000.36,0000.14,0000.28,0000.51,-000.09,18.5,25.0,02.0,01.3,0661.7,31.0
2021-09-13T09:45:00Z,00000200,01000000,0000.64,0000.13,0000.64,-000.08,0000.24,0000.32,-000.08,0000.26,0000.26,18.5,25.0,01.9,01.3,0661.6,31.0
2021-09-13T09:46:00Z,00000200,01000000,0000.11,0000.36,-000.09,-000.09,0000.14,0000.21,0000.30,0000.12,-000.01,18.5,25.0,01.9,01.3,0661.5,31.0
2021-09-13T09:47:00Z,00000200,00000000,0000.48,0000.51,0000.34,0000.21,0000.18,0000.28,0000.79,0000.99,0001.14,18.5,25.0,01.8,01.2,0661.6,31.0
2021-09-13T09:48:00Z,00000200,01000000,0000.36,0000.66,0000.40,0000.15,0000.09,0000.25,0000.28,0000.01,0000.02,18.5,25.0,01.9,01.3,0661.7,31.0
2021-09-13T09:49:00Z,00000200,00000000,0000.26,0000.19,0000.63,-000.32,0000.34,0000.23,0000.67,0000.61,0000.61,18.5,25.0,01.9,01.3,0661.7,31.0
2021-09-13T09:50:00Z,00000200,00000000,0000.08,0000.25,0000.31,0000.43,0000.22,0000.25,0000.87,0000.83,0000.94,18.4,25.0,01.9,01.3,0661.7,31.0
2021-09-13T09:51:00Z,00000200,00000000,0000.05,0000.28,0000.39,-000.33,0000.25,0000.24,-000.12,-000.09,-000.29,18.4,24.9,02.0,01.3,0661.6,31.0
2021-09-13T09:52:00Z,00000200,01000000,0000.08,0000.54,0000.43,0000.26,-000.12,0000.14,0000.36,0000.10,0000.10,18.4,24.9,02.0,01.4,0661.7,31.0
2021-09-13T09:53:00Z,00000200,00000000,0000.08,0000.58,0000.27,-000.43,0000.02,0000.07,0000.42,0000.80,0000.58,18.4,24.9,02.1,01.4,0661.7,31.0
2021-09-13T09:54:00Z,00000200,00000000,-000.57,0000.44,0000.24,-000.59,0000.35,0000.14,0000.88,0000.45,0000.75,18.4,24.9,02.0,01.4,0661.8,31.0
2021-09-13T09:55:00Z,00000200,00000000,-000.50,0000.70,0000.66,0000.19,0000.01,0000.16,0000.16,-000.00,0000.44,18.4,24.9,02.0,01.3,0661.6,31.0
2021-09-13T09:56:00Z,00000200,00000000,0000.60,0000.61,0000.40,0000.20,0000.11,0000.15,0001.00,0001.21,0000.44,18.4,24.9,02.1,01.4,0661.6,31.0
2021-09-13T09:57:00Z,00000200,40000000,,,,,,,-000.21,0000.01,0000.18,18.5,24.9,01.9,01.3,0661.7,31.0
2021-09-13T09:58:00Z,00000200,60000000,,,,,,,0000.27,-000.13,0000.08,18.3,25.1,01.9,01.3,0660.8,31.1
2021-09-13T09:59:00Z,00000200,20000000,,,,,,,-000.19,0000.17,-000.16,18.3,25.2,02.0,01.3,0660.8,31.1
